Time,TemperatureF,DewpointF,PressureIn,WindDirection,WindDirectionDegrees,WindSpeedMPH,WindSpeedGustMPH,Humidity,HourlyPrecipIn,Conditions,Clouds,dailyrainin,SoftwareType,DateUTC
2013-11-08 00:04:00,37.0,-99.9,-100.00,NW,320,25.0,31.0,-999,-99.99,,,-99.99,,2013-11-08 06:04:00,
2013-11-08 00:53:00,37.0,-99.9,-100.00,NW,320,26.0,32.0,-999,-99.99,,,-99.99,,2013-11-08 06:53:00,
2013-11-08 01:02:00,37.0,-99.9,-100.00,NW,320,26.0,32.0,-999,-99.99,,,-99.99,,2013-11-08 07:02:00,
2013-11-08 01:12:00,37.0,-99.9,-100.00,NW,320,26.0,32.0,-999,-99.99,,,-99.99,,2013-11-08 07:12:00,
2013-11-08 01:22:00,37.0,-99.9,-100.00,NW,320,26.0,32.0,-999,-99.99,,,-99.99,,2013-11-08 07:22:00,
2013-11-08 01:52:00,37.0,-99.9,-100.00,NW,310,23.0,28.0,-999,-99.99,,,-99.99,,2013-11-08 07:52:00,
2013-11-08 02:02:00,37.0,-99.9,-100.00,NW,310,23.0,28.0,-999,-99.99,,,-99.99,,2013-11-08 08:02:00,
2013-11-08 02:22:00,37.0,-99.9,-100.00,NNW,330,25.0,29.0,-999,-99.99,,,-99.99,,2013-11-08 08:22:00,
2013-11-08 02:32:00,37.0,-99.9,-100.00,NNW,330,25.0,29.0,-999,-99.99,,,-99.99,,2013-11-08 08:32:00,
2013-11-08 02:52:00,37.0,-99.9,-100.00,WNW,300,23.0,26.0,-999,-99.99,,,-99.99,,2013-11-08 08:52:00,
2013-11-08 03:03:00,37.0,-99.9,-100.00,WNW,300,23.0,26.0,-999,-99.99,,,-99.99,,2013-11-08 09:03:00,
2013-11-08 03:22:00,37.0,-99.9,-100.00,NW,310,23.0,26.0,-999,-99.99,,,-99.99,,2013-11-08 09:22:00,
2013-11-08 03:34:00,37.0,-99.9,-100.00,NW,310,23.0,26.0,-999,-99.99,,,-99.99,,2013-11-08 09:34:00,
2013-11-08 03:54:00,37.0,-99.9,-100.00,NW,320,22.0,24.0,-999,-99.99,,,-99.99,,2013-11-08 09:54:00,
2013-11-08 04:03:00,37.0,-99.9,-100.00,NW,320,22.0,24.0,-999,-99.99,,,-99.99,,2013-11-08 10:03:00,
2013-11-08 04:23:00,38.0,-99.9,-100.00,NW,310,22.0,29.0,-999,-99.99,,,-99.99,,2013-11-08 10:23:00,
2013-11-08 04:33:00,38.0,-99.9,-100.00,NW,310,22.0,29.0,-999,-99.99,,,-99.99,,2013-11-08 10:33:00,
2013-11-08 04:53:00,37.0,-99.9,-100.00,NW,320,21.0,24.0,-999,-99.99,,,-99.99,,2013-11-08 10:53:00,
2013-11-08 05:02:00,37.0,-99.9,-100.00,NW,320,21.0,24.0,-999,-99.99,,,-99.99,,2013-11-08 11:02:00,
2013-11-08 05:22:00,38.0,-99.9,-100.00,NW,310,20.0,23.0,-999,-99.99,,,-99.99,,2013-11-08 11:22:00,
2013-11-08 05:33:00,38.0,-99.9,-100.00,NW,310,20.0,23.0,-999,-99.99,,,-99.99,,2013-11-08 11:33:00,
2013-11-08 05:52:00,38.0,-99.9,-100.00,NW,320,21.0,23.0,-999,-99.99,,,-99.99,,2013-11-08 11:52:00,
2013-11-08 06:02:00,38.0,-99.9,-100.00,NW,320,21.0,23.0,-999,-99.99,,,-99.99,,2013-11-08 12:02:00,
2013-11-08 06:11:00,38.0,-99.9,-100.00,NW,320,21.0,23.0,-999,-99.99,,,-99.99,,2013-11-08 12:11:00,
2013-11-08 06:22:00,38.0,-99.9,-100.00,NW,320,21.0,23.0,-999,-99.99,,,-99.99,,2013-11-08 12:22:00,
2013-11-08 06:52:00,37.0,-99.9,-100.00,NW,310,21.0,23.0,-999,-99.99,,,-99.99,,2013-11-08 12:52:00,
2013-11-08 07:01:00,37.0,-99.9,-100.00,NW,310,21.0,23.0,-999,-99.99,,,-99.99,,2013-11-08 13:01:00,
2013-11-08 07:22:00,37.0,-99.9,-100.00,NW,310,17.0,21.0,-999,-99.99,,,-99.99,,2013-11-08 13:22:00,
2013-11-08 07:32:00,37.0,-99.9,-100.00,NW,310,17.0,21.0,-999,-99.99,,,-99.99,,2013-11-08 13:32:00,
2013-11-08 07:52:00,37.0,-99.9,-100.00,NW,320,17.0,20.0,-999,-99.99,,,-99.99,,2013-11-08 13:52:00,
2013-11-08 08:02:00,37.0,-99.9,-100.00,NW,320,17.0,20.0,-999,-99.99,,,-99.99,,2013-11-08 14:02:00,
2013-11-08 08:11:00,37.0,-99.9,-100.00,NW,320,17.0,20.0,-999,-99.99,,,-99.99,,2013-11-08 14:11:00,
2013-11-08 08:22:00,37.0,-99.9,-100.00,NW,320,17.0,20.0,-999,-99.99,,,-99.99,,2013-11-08 14:22:00,
2013-11-08 08:52:00,42.0,-99.9,-100.00,NW,320,15.0,17.0,-999,-99.99,,,-99.99,,2013-11-08 14:52:00,
2013-11-08 09:02:00,42.0,-99.9,-100.00,NW,320,15.0,17.0,-999,-99.99,,,-99.99,,2013-11-08 15:02:00,
2013-11-08 09:11:00,42.0,-99.9,-100.00,NW,320,15.0,17.0,-999,-99.99,,,-99.99,,2013-11-08 15:11:00,
2013-11-08 09:22:00,42.0,-99.9,-100.00,NW,320,15.0,17.0,-999,-99.99,,,-99.99,,2013-11-08 15:22:00,
2013-11-08 09:23:00,47.0,-99.9,-100.00,WNW,290,13.0,15.0,-999,-99.99,,,-99.99,,2013-11-08 15:23:00,
2013-11-08 09:53:00,47.0,-99.9,-100.00,WNW,290,13.0,15.0,-999,-99.99,,,-99.99,,2013-11-08 15:53:00,
2013-11-08 10:03:00,47.0,-99.9,-100.00,WNW,290,13.0,15.0,-999,-99.99,,,-99.99,,2013-11-08 16:03:00,
2013-11-08 10:13:00,47.0,-99.9,-100.00,WNW,290,13.0,15.0,-999,-99.99,,,-99.99,,2013-11-08 16:13:00,
2013-11-08 10:53:00,46.0,-99.9,-100.00,West,280,13.0,15.0,-999,-99.99,,,-99.99,,2013-11-08 16:53:00,
2013-11-08 11:02:00,46.0,-99.9,-100.00,West,280,13.0,15.0,-999,-99.99,,,-99.99,,2013-11-08 17:02:00,
2013-11-08 11:22:00,47.0,-99.9,-100.00,West,270,15.0,16.0,-999,-99.99,,,-99.99,,2013-11-08 17:22:00,
2013-11-08 11:33:00,47.0,-99.9,-100.00,West,270,15.0,16.0,-999,-99.99,,,-99.99,,2013-11-08 17:33:00,
2013-11-08 11:53:00,46.0,-99.9,-100.00,WSW,250,14.0,16.0,-999,-99.99,,,-99.99,,2013-11-08 17:53:00,
2013-11-08 12:02:00,46.0,-99.9,-100.00,WSW,250,14.0,16.0,-999,-99.99,,,-99.99,,2013-11-08 18:02:00,
2013-11-08 12:12:00,46.0,-99.9,-100.00,WSW,250,14.0,16.0,-999,-99.99,,,-99.99,,2013-11-08 18:12:00,
2013-11-08 12:22:00,46.0,-99.9,-100.00,WSW,250,14.0,16.0,-999,-99.99,,,-99.99,,2013-11-08 18:22:00,
2013-11-08 12:53:00,47.0,-99.9,-100.00,West,280,15.0,17.0,-999,-99.99,,,-99.99,,2013-11-08 18:53:00,
2013-11-08 13:02:00,47.0,-99.9,-100.00,West,280,15.0,17.0,-999,-99.99,,,-99.99,,2013-11-08 19:02:00,
2013-11-08 13:22:00,45.0,-99.9,-100.00,West,260,17.0,20.0,-999,-99.99,,,-99.99,,2013-11-08 19:22:00,
2013-11-08 13:32:00,45.0,-99.9,-100.00,West,260,17.0,20.0,-999,-99.99,,,-99.99,,2013-11-08 19:32:00,
2013-11-08 13:53:00,45.0,-99.9,-100.00,SW,220,14.0,16.0,-999,-99.99,,,-99.99,,2013-11-08 19:53:00,
2013-11-08 14:02:00,45.0,-99.9,-100.00,SW,220,14.0,16.0,-999,-99.99,,,-99.99,,2013-11-08 20:02:00,
2013-11-08 14:22:00,45.0,-99.9,-100.00,SW,230,15.0,17.0,-999,-99.99,,,-99.99,,2013-11-08 20:22:00,
2013-11-08 14:33:00,45.0,-99.9,-100.00,SW,230,15.0,17.0,-999,-99.99,,,-99.99,,2013-11-08 20:33:00,
2013-11-08 14:53:00,41.0,-99.9,-100.00,WSW,240,13.0,16.0,-999,-99.99,,,-99.99,,2013-11-08 20:53:00,
2013-11-08 15:03:00,41.0,-99.9,-100.00,WSW,240,13.0,16.0,-999,-99.99,,,-99.99,,2013-11-08 21:03:00,
2013-11-08 15:54:00,40.0,-99.9,-100.00,SSW,210,14.0,17.0,-999,-99.99,,,-99.99,,2013-11-08 21:54:00,
2013-11-08 16:04:00,40.0,-99.9,-100.00,SSW,210,14.0,17.0,-999,-99.99,,,-99.99,,2013-11-08 22:04:00,
2013-11-08 16:53:00,38.0,-99.9,-100.00,SSW,200,9.0,10.0,-999,-99.99,,,-99.99,,2013-11-08 22:53:00,
2013-11-08 17:03:00,38.0,-99.9,-100.00,SSW,200,9.0,10.0,-999,-99.99,,,-99.99,,2013-11-08 23:03:00,
2013-11-08 17:22:00,37.0,-99.9,-100.00,South,170,6.0,7.0,-999,-99.99,,,-99.99,,2013-11-08 23:22:00,
2013-11-08 17:34:00,37.0,-99.9,-100.00,South,170,6.0,7.0,-999,-99.99,,,-99.99,,2013-11-08 23:34:00,
2013-11-08 17:53:00,38.0,-99.9,-100.00,South,180,8.0,10.0,-999,-99.99,,,-99.99,,2013-11-08 23:53:00,
2013-11-08 18:02:00,38.0,-99.9,-100.00,South,180,8.0,10.0,-999,-99.99,,,-99.99,,2013-11-09 00:02:00,
2013-11-08 18:22:00,39.0,-99.9,-100.00,SSE,160,8.0,10.0,-999,-99.99,,,-99.99,,2013-11-09 00:22:00,
2013-11-08 18:32:00,39.0,-99.9,-100.00,SSE,160,8.0,10.0,-999,-99.99,,,-99.99,,2013-11-09 00:32:00,
2013-11-08 18:52:00,40.0,-99.9,-100.00,South,170,10.0,13.0,-999,-99.99,,,-99.99,,2013-11-09 00:52:00,
2013-11-08 19:02:00,40.0,-99.9,-100.00,South,170,10.0,13.0,-999,-99.99,,,-99.99,,2013-11-09 01:02:00,
2013-11-08 19:12:00,40.0,-99.9,-100.00,South,170,10.0,13.0,-999,-99.99,,,-99.99,,2013-11-09 01:12:00,
2013-11-08 19:22:00,40.0,-99.9,-100.00,South,170,10.0,13.0,-999,-99.99,,,-99.99,,2013-11-09 01:22:00,
2013-11-08 19:52:00,40.0,-99.9,-100.00,South,170,10.0,15.0,-999,-99.99,,,-99.99,,2013-11-09 01:52:00,
2013-11-08 20:22:00,41.0,-99.9,-100.00,South,180,14.0,17.0,-999,-99.99,,,-99.99,,2013-11-09 02:22:00,
2013-11-08 20:32:00,41.0,-99.9,-100.00,South,180,14.0,17.0,-999,-99.99,,,-99.99,,2013-11-09 02:32:00,
2013-11-08 20:52:00,42.0,-99.9,-100.00,South,190,18.0,23.0,-999,-99.99,,,-99.99,,2013-11-09 02:52:00,
2013-11-08 21:02:00,42.0,-99.9,-100.00,South,190,18.0,23.0,-999,-99.99,,,-99.99,,2013-11-09 03:02:00,
2013-11-08 22:23:00,44.0,-99.9,-100.00,SSE,150,16.0,23.0,-999,-99.99,,,-99.99,,2013-11-09 04:23:00,
2013-11-08 22:54:00,44.0,-99.9,-100.00,SSE,150,16.0,23.0,-999,-99.99,,,-99.99,,2013-11-09 04:54:00,
2013-11-08 23:03:00,44.0,-99.9,-100.00,SSE,150,16.0,23.0,-999,-99.99,,,-99.99,,2013-11-09 05:03:00,
2013-11-08 23:13:00,44.0,-99.9,-100.00,SSE,150,16.0,23.0,-999,-99.99,,,-99.99,,2013-11-09 05:13:00,
2013-11-08 23:23:00,42.0,-99.9,-100.00,South,190,33.0,41.0,-999,-99.99,,,-99.99,,2013-11-09 05:23:00,
2013-11-08 23:53:00,42.0,-99.9,-100.00,South,190,33.0,41.0,-999,-99.99,,,-99.99,,2013-11-09 05:53:00,